^^
Your Local Weather - Clay, NY Station Historical Data
Daily Summary for December 16, 2017 Units:  English    Metric   Both
« Previous Day
Next Day »
Daily Weekly Monthly Yearly Custom
  High: Low: Average:
Temperature: 26.3 °F 7.1 °F 21.9 °F
Dew Point: 22.4 °F 4.0 °F 15.7 °F
Humidity: 89% 61% 77%
Wind Speed: 7.0mph 0.0mph 2.2mph
Wind Gust: 14.0mph - -
Wind- - WSW
Pressure: 30.20 in 29.77 in -
Precipitation: 0.00 in    
Historical Graphs
 
 
Tabular Data for December 16, 2017
Time Temperature Dew Point Pressure Wind Wind Speed Wind Gust Humidity Rainfall Rate (Hourly) solar
00:02 25.3 °F 18.2 °F 29.77 in West 4.0 mph 4.0 mph 74% 0.00 in 0 W/m2
00:08 25.3 °F 18.2 °F 29.77 in WSW 4.0 mph 4.0 mph 74% 0.00 in 0 W/m2
00:14 25.2 °F 18.1 °F 29.77 in SW 4.0 mph 4.0 mph 74% 0.00 in 0 W/m2
00:16 25.1 °F 18.0 °F 29.77 in SW 4.0 mph 4.0 mph 74% 0.00 in 0 W/m2
00:22 25.0 °F 17.9 °F 29.77 in WSW 3.0 mph 9.0 mph 74% 0.00 in 0 W/m2
00:24 25.0 °F 17.9 °F 29.77 in SW 4.0 mph 9.0 mph 74% 0.00 in 0 W/m2
00:30 24.8 °F 17.7 °F 29.77 in West 4.0 mph 4.0 mph 74% 0.00 in 0 W/m2
00:36 24.6 °F 17.5 °F 29.77 in WSW 3.0 mph 4.0 mph 74% 0.00 in 0 W/m2
00:42 24.4 °F 17.3 °F 29.77 in SW 3.0 mph 7.0 mph 74% 0.00 in 0 W/m2
00:48 24.3 °F 17.2 °F 29.77 in SW 3.0 mph 7.0 mph 74% 0.00 in 0 W/m2
00:52 24.3 °F 17.2 °F 29.77 in WSW 4.0 mph 5.0 mph 74% 0.00 in 0 W/m2
00:58 24.2 °F 17.1 °F 29.77 in WSW 4.0 mph 5.0 mph 74% 0.00 in 0 W/m2
01:04 24.0 °F 16.9 °F 29.77 in WSW 4.0 mph 7.0 mph 74% 0.00 in 0 W/m2
01:08 23.9 °F 16.8 °F 29.77 in WSW 3.0 mph 7.0 mph 74% 0.00 in 0 W/m2
01:14 24.0 °F 16.9 °F 29.77 in WNW 3.0 mph 9.0 mph 74% 0.00 in 0 W/m2
01:20 24.0 °F 16.6 °F 29.77 in WSW 4.0 mph 5.0 mph 73% 0.00 in 0 W/m2
01:24 24.0 °F 16.6 °F 29.77 in SW 4.0 mph 5.0 mph 73% 0.00 in 0 W/m2
01:30 24.1 °F 16.4 °F 29.77 in West 5.0 mph 5.0 mph 72% 0.00 in 0 W/m2
01:36 24.2 °F 16.1 °F 29.78 in SW 5.0 mph 5.0 mph 71% 0.00 in 0 W/m2
01:42 24.4 °F 16.0 °F 29.78 in WSW 6.0 mph 6.0 mph 70% 0.00 in 0 W/m2
01:48 24.5 °F 15.8 °F 29.78 in SW 6.0 mph 8.0 mph 69% 0.00 in 0 W/m2
01:54 24.5 °F 15.4 °F 29.79 in West 6.0 mph 9.0 mph 68% 0.00 in 0 W/m2
02:00 24.5 °F 15.4 °F 29.79 in West 6.0 mph 14.0 mph 68% 0.00 in 0 W/m2
02:06 24.7 °F 15.3 °F 29.79 in West 7.0 mph 14.0 mph 67% 0.00 in 0 W/m2
02:12 24.8 °F 15.0 °F 29.80 in WSW 6.0 mph 7.0 mph 66% 0.00 in 0 W/m2
02:18 24.7 °F 14.9 °F 29.80 in WSW 4.0 mph 7.0 mph 66% 0.00 in 0 W/m2
02:24 24.7 °F 14.6 °F 29.80 in West 5.0 mph 8.0 mph 65% 0.00 in 0 W/m2
02:30 24.7 °F 14.6 °F 29.80 in West 6.0 mph 6.0 mph 65% 0.00 in 0 W/m2
02:36 24.3 °F 13.9 °F 29.81 in WSW 5.0 mph 9.0 mph 64% 0.00 in 0 W/m2
02:42 24.1 °F 14.0 °F 29.81 in WSW 5.0 mph 7.0 mph 65% 0.00 in 0 W/m2
02:48 24.0 °F 13.9 °F 29.82 in West 6.0 mph 10.0 mph 65% 0.00 in 0 W/m2
02:54 23.8 °F 13.7 °F 29.82 in WSW 6.0 mph 6.0 mph 65% 0.00 in 0 W/m2
03:00 23.7 °F 13.6 °F 29.82 in WNW 5.0 mph 6.0 mph 65% 0.00 in 0 W/m2
03:06 24.0 °F 13.6 °F 29.82 in West 6.0 mph 7.0 mph 64% 0.00 in 0 W/m2
03:12 24.0 °F 13.6 °F 29.82 in WSW 6.0 mph 8.0 mph 64% 0.00 in 0 W/m2
03:18 24.1 °F 13.3 °F 29.82 in WNW 6.0 mph 8.0 mph 63% 0.00 in 0 W/m2
03:26 24.0 °F 13.6 °F 29.83 in West 5.0 mph 6.0 mph 64% 0.00 in 0 W/m2
03:32 24.0 °F 13.2 °F 29.82 in WSW 6.0 mph 6.0 mph 63% 0.00 in 0 W/m2
03:38 23.9 °F 13.1 °F 29.82 in SW 6.0 mph 7.0 mph 63% 0.00 in 0 W/m2
03:44 24.1 °F 12.9 °F 29.83 in West 7.0 mph 9.0 mph 62% 0.00 in 0 W/m2
03:50 24.0 °F 12.9 °F 29.83 in WSW 6.0 mph 6.0 mph 62% 0.00 in 0 W/m2
03:56 23.7 °F 12.6 °F 29.83 in West 5.0 mph 7.0 mph 62% 0.00 in 0 W/m2
04:02 23.6 °F 12.5 °F 29.83 in SW 6.0 mph 7.0 mph 62% 0.00 in 0 W/m2
04:08 23.5 °F 12.4 °F 29.83 in WSW 6.0 mph 7.0 mph 62% 0.00 in 0 W/m2
04:14 23.3 °F 12.2 °F 29.83 in WSW 6.0 mph 12.0 mph 62% 0.00 in 0 W/m2
04:20 23.3 °F 12.2 °F 29.83 in SW 5.0 mph 5.0 mph 62% 0.00 in 0 W/m2
04:26 23.1 °F 12.0 °F 29.83 in SW 4.0 mph 6.0 mph 62% 0.00 in 0 W/m2
04:32 23.1 °F 12.0 °F 29.83 in WSW 6.0 mph 9.0 mph 62% 0.00 in 0 W/m2
04:38 22.9 °F 11.4 °F 29.83 in West 5.0 mph 9.0 mph 61% 0.00 in 0 W/m2
04:44 22.9 °F 11.4 °F 29.83 in WSW 5.0 mph 7.0 mph 61% 0.00 in 0 W/m2
04:50 22.8 °F 11.3 °F 29.83 in SW 5.0 mph 5.0 mph 61% 0.00 in 0 W/m2
04:56 22.7 °F 11.3 °F 29.83 in West 5.0 mph 7.0 mph 61% 0.00 in 0 W/m2
05:02 22.6 °F 11.2 °F 29.84 in WSW 5.0 mph 5.0 mph 61% 0.00 in 0 W/m2
05:08 22.4 °F 11.0 °F 29.84 in WSW 4.0 mph 5.0 mph 61% 0.00 in 0 W/m2
05:14 22.2 °F 11.1 °F 29.84 in West 4.0 mph 7.0 mph 62% 0.00 in 0 W/m2
05:20 22.3 °F 10.9 °F 29.84 in WSW 5.0 mph 6.0 mph 61% 0.00 in 0 W/m2
05:24 22.3 °F 10.9 °F 29.83 in WSW 5.0 mph 6.0 mph 61% 0.00 in 0 W/m2
05:30 22.1 °F 11.1 °F 29.84 in West 4.0 mph 5.0 mph 62% 0.00 in 0 W/m2
05:36 22.0 °F 11.0 °F 29.84 in West 4.0 mph 9.0 mph 62% 0.00 in 0 W/m2
05:38 22.0 °F 11.0 °F 29.84 in West 4.0 mph 9.0 mph 62% 0.00 in 0 W/m2
05:44 22.0 °F 11.0 °F 29.85 in WSW 4.0 mph 4.0 mph 62% 0.00 in 0 W/m2
05:50 21.9 °F 10.9 °F 29.85 in West 3.0 mph 6.0 mph 62% 0.00 in 0 W/m2
05:56 22.0 °F 11.3 °F 29.85 in West 5.0 mph 10.0 mph 63% 0.00 in 0 W/m2
06:02 21.9 °F 11.2 °F 29.85 in West 5.0 mph 5.0 mph 63% 0.00 in 0 W/m2
06:08 21.8 °F 11.1 °F 29.85 in WSW 4.0 mph 5.0 mph 63% 0.00 in 0 W/m2
06:10 21.8 °F 11.1 °F 29.85 in West 4.0 mph 4.0 mph 63% 0.00 in 0 W/m2
06:16 21.8 °F 11.1 °F 29.85 in SW 4.0 mph 6.0 mph 63% 0.00 in 0 W/m2
06:22 21.5 °F 10.8 °F 29.86 in WSW 3.0 mph 5.0 mph 63% 0.00 in 0 W/m2
06:28 21.4 °F 11.1 °F 29.86 in SW 4.0 mph 10.0 mph 64% 0.00 in 0 W/m2
06:34 21.7 °F 11.4 °F 29.86 in West 4.0 mph 4.0 mph 64% 0.00 in 0 W/m2
06:40 21.8 °F 11.8 °F 29.86 in WSW 4.0 mph 4.0 mph 65% 0.00 in 0 W/m2
06:46 21.9 °F 11.9 °F 29.86 in WSW 3.0 mph 5.0 mph 65% 0.00 in 0 W/m2
06:52 22.1 °F 12.1 °F 29.86 in SW 4.0 mph 7.0 mph 65% 0.00 in 0 W/m2
07:00 22.3 °F 12.0 °F 29.87 in SW 4.0 mph 5.0 mph 64% 0.00 in 0 W/m2
07:04 22.4 °F 12.1 °F 29.87 in WSW 4.0 mph 7.0 mph 64% 0.00 in 0 W/m2
07:10 22.5 °F 12.1 °F 29.87 in West 4.0 mph 8.0 mph 64% 0.00 in 0 W/m2
07:16 22.6 °F 12.2 °F 29.86 in SW 4.0 mph 8.0 mph 64% 0.00 in 0 W/m2
07:22 22.7 °F 12.3 °F 29.87 in WSW 3.0 mph 4.0 mph 64% 0.00 in 0 W/m2
07:24 22.7 °F 12.3 °F 29.88 in WSW 3.0 mph 5.0 mph 64% 0.00 in 0 W/m2
07:30 22.9 °F 12.5 °F 29.88 in WSW 3.0 mph 3.0 mph 64% 0.00 in 0 W/m2
07:36 23.1 °F 12.7 °F 29.88 in WSW 4.0 mph 4.0 mph 64% 0.00 in 7 W/m2
07:42 23.3 °F 12.6 °F 29.88 in WSW 5.0 mph 5.0 mph 63% 0.00 in 12 W/m2
07:48 23.3 °F 12.6 °F 29.88 in SW 4.0 mph 7.0 mph 63% 0.00 in 14 W/m2
07:54 23.4 °F 12.6 °F 29.88 in WSW 5.0 mph 6.0 mph 63% 0.00 in 18 W/m2
08:00 23.5 °F 13.1 °F 29.88 in WSW 5.0 mph 5.0 mph 64% 0.00 in 21 W/m2
08:02 23.6 °F 13.2 °F 29.88 in WSW 4.0 mph 5.0 mph 64% 0.00 in 23 W/m2
08:08 23.8 °F 13.4 °F 29.88 in SW 5.0 mph 8.0 mph 64% 0.00 in 25 W/m2
08:14 24.0 °F 13.6 °F 29.88 in SW 5.0 mph 7.0 mph 64% 0.00 in 33 W/m2
08:20 24.1 °F 13.7 °F 29.88 in WSW 4.0 mph 5.0 mph 64% 0.00 in 28 W/m2
08:26 24.2 °F 13.8 °F 29.88 in SSW 4.0 mph 7.0 mph 64% 0.00 in 39 W/m2
08:32 24.4 °F 14.0 °F 29.88 in SW 5.0 mph 6.0 mph 64% 0.00 in 33 W/m2
08:38 24.5 °F 14.1 °F 29.88 in West 5.0 mph 6.0 mph 64% 0.00 in 56 W/m2
08:44 24.6 °F 14.1 °F 29.89 in WSW 4.0 mph 6.0 mph 64% 0.00 in 60 W/m2
08:50 24.8 °F 14.3 °F 29.89 in SW 5.0 mph 5.0 mph 64% 0.00 in 62 W/m2
08:52 24.8 °F 14.3 °F 29.88 in WSW 5.0 mph 5.0 mph 64% 0.00 in 53 W/m2
08:58 24.9 °F 14.4 °F 29.89 in West 5.0 mph 5.0 mph 64% 0.00 in 42 W/m2
09:04 25.1 °F 15.0 °F 29.89 in WSW 5.0 mph 6.0 mph 65% 0.00 in 47 W/m2
09:10 25.2 °F 15.1 °F 29.89 in WSW 4.0 mph 4.0 mph 65% 0.00 in 79 W/m2
09:16 25.3 °F 15.2 °F 29.89 in West 3.0 mph 6.0 mph 65% 0.00 in 90 W/m2
09:22 25.5 °F 15.4 °F 29.90 in WSW 3.0 mph 8.0 mph 65% 0.00 in 70 W/m2
09:28 25.6 °F 15.8 °F 29.91 in WNW 3.0 mph 8.0 mph 66% 0.00 in 69 W/m2
09:34 25.7 °F 15.9 °F 29.91 in WNW 2.0 mph 4.0 mph 66% 0.00 in 65 W/m2
09:40 25.8 °F 16.0 °F 29.91 in WSW 2.0 mph 3.0 mph 66% 0.00 in 74 W/m2
09:46 25.9 °F 16.1 °F 29.91 in WSW 3.0 mph 4.0 mph 66% 0.00 in 76 W/m2
09:52 26.0 °F 16.5 °F 29.91 in WSW 2.0 mph 3.0 mph 67% 0.00 in 84 W/m2
09:58 26.1 °F 16.6 °F 29.92 in WSW 1.0 mph 3.0 mph 67% 0.00 in 83 W/m2
10:02 26.2 °F 16.7 °F 29.92 in WSW 1.0 mph 4.0 mph 67% 0.00 in 97 W/m2
10:08 26.3 °F 16.8 °F 29.92 in WSW 1.0 mph 4.0 mph 67% 0.00 in 74 W/m2
10:14 26.3 °F 16.8 °F 29.92 in West 1.0 mph 2.0 mph 67% 0.00 in 84 W/m2
10:20 26.2 °F 17.1 °F 29.93 in West 1.0 mph 2.0 mph 68% 0.00 in 60 W/m2
10:26 26.1 °F 17.3 °F 29.93 in WSW 2.0 mph 4.0 mph 69% 0.00 in 77 W/m2
10:32 25.3 °F 18.2 °F 29.93 in West 3.0 mph 5.0 mph 74% 0.00 in 76 W/m2
10:34 25.1 °F 18.3 °F 29.94 in West 3.0 mph 5.0 mph 75% 0.00 in 77 W/m2
10:36 25.0 °F 18.5 °F 29.93 in West 3.0 mph 5.0 mph 76% 0.00 in 83 W/m2
10:42 24.6 °F 19.3 °F 29.93 in NW 2.0 mph 2.0 mph 80% 0.00 in 77 W/m2
10:48 24.4 °F 19.7 °F 29.93 in West 2.0 mph 3.0 mph 82% 0.00 in 84 W/m2
10:54 24.2 °F 19.8 °F 29.93 in West 2.0 mph 2.0 mph 83% 0.00 in 84 W/m2
11:00 24.2 °F 20.1 °F 29.94 in West 2.0 mph 2.0 mph 84% 0.00 in 62 W/m2
11:06 24.1 °F 20.2 °F 29.93 in West 2.0 mph 2.0 mph 85% 0.00 in 58 W/m2
11:12 24.1 °F 20.2 °F 29.93 in West 1.0 mph 2.0 mph 85% 0.00 in 56 W/m2
11:18 24.1 °F 20.5 °F 29.93 in West 1.0 mph 2.0 mph 86% 0.00 in 54 W/m2
11:24 24.2 °F 20.6 °F 29.93 in Calm   1.0 mph 86% 0.00 in 46 W/m2
11:30 24.2 °F 20.9 °F 29.93 in West 1.0 mph 3.0 mph 87% 0.00 in 46 W/m2
11:36 24.2 °F 20.9 °F 29.92 in West 1.0 mph 3.0 mph 87% 0.00 in 47 W/m2
11:42 24.2 °F 20.9 °F 29.93 in WSW 1.0 mph 2.0 mph 87% 0.00 in 40 W/m2
11:48 24.2 °F 20.9 °F 29.93 in West 1.0 mph 3.0 mph 87% 0.00 in 35 W/m2
11:54 24.2 °F 20.9 °F 29.93 in WSW 1.0 mph 2.0 mph 87% 0.00 in 35 W/m2
12:00 24.2 °F 20.9 °F 29.93 in West 1.0 mph 1.0 mph 87% 0.00 in 37 W/m2
12:06 24.3 °F 21.3 °F 29.93 in West 2.0 mph 2.0 mph 88% 0.00 in 32 W/m2
12:12 24.3 °F 21.3 °F 29.92 in West 1.0 mph 1.0 mph 88% 0.00 in 28 W/m2
12:18 24.2 °F 21.2 °F 29.93 in WSW 1.0 mph 1.0 mph 88% 0.00 in 35 W/m2
12:22 24.2 °F 21.2 °F 29.93 in WSW 1.0 mph 3.0 mph 88% 0.00 in 33 W/m2
12:28 24.3 °F 21.3 °F 29.93 in WSW 1.0 mph 3.0 mph 88% 0.00 in 33 W/m2
12:34 24.4 °F 21.4 °F 29.94 in WSW 1.0 mph 2.0 mph 88% 0.00 in 35 W/m2
12:36 24.4 °F 21.4 °F 29.94 in WSW 1.0 mph 2.0 mph 88% 0.00 in 33 W/m2
12:42 24.5 °F 21.5 °F 29.94 in WSW 1.0 mph 1.0 mph 88% 0.00 in 39 W/m2
12:48 24.7 °F 21.9 °F 29.94 in WSW 1.0 mph 2.0 mph 89% 0.00 in 42 W/m2
12:54 24.8 °F 22.0 °F 29.94 in WSW 1.0 mph 1.0 mph 89% 0.00 in 37 W/m2
13:00 24.8 °F 22.0 °F 29.94 in WSW 1.0 mph 2.0 mph 89% 0.00 in 28 W/m2
13:06 24.8 °F 22.0 °F 29.95 in WNW 1.0 mph 2.0 mph 89% 0.00 in 28 W/m2
13:12 24.8 °F 22.0 °F 29.95 in West 1.0 mph 2.0 mph 89% 0.00 in 26 W/m2
13:18 24.8 °F 22.0 °F 29.95 in West 1.0 mph 3.0 mph 89% 0.00 in 32 W/m2
13:24 24.8 °F 22.0 °F 29.95 in West 1.0 mph 1.0 mph 89% 0.00 in 42 W/m2
13:28 24.9 °F 22.1 °F 29.95 in WNW 2.0 mph 4.0 mph 89% 0.00 in 42 W/m2
13:34 25.0 °F 21.9 °F 29.95 in WNW 2.0 mph 2.0 mph 88% 0.00 in 37 W/m2
13:40 25.1 °F 22.3 °F 29.95 in WNW 1.0 mph 1.0 mph 89% 0.00 in 35 W/m2
13:46 25.2 °F 22.4 °F 29.95 in WNW 1.0 mph 2.0 mph 89% 0.00 in 32 W/m2
13:52 25.1 °F 22.0 °F 29.96 in WNW 2.0 mph 2.0 mph 88% 0.00 in 33 W/m2
13:58 25.1 °F 22.0 °F 29.96 in WNW 2.0 mph 3.0 mph 88% 0.00 in 32 W/m2
14:06 25.1 °F 22.0 °F 29.97 in WNW 1.0 mph 2.0 mph 88% 0.00 in 30 W/m2
14:12 25.2 °F 22.1 °F 29.97 in WNW 1.0 mph 1.0 mph 88% 0.00 in 37 W/m2
14:14 25.2 °F 22.1 °F 29.97 in WNW 1.0 mph 1.0 mph 88% 0.00 in 37 W/m2
14:20 25.2 °F 22.1 °F 29.97 in WNW 1.0 mph 1.0 mph 88% 0.00 in 39 W/m2
14:28 25.0 °F 21.7 °F 29.98 in WNW 1.0 mph 3.0 mph 87% 0.00 in 30 W/m2
14:34 25.0 °F 21.7 °F 29.98 in WSW 1.0 mph 3.0 mph 87% 0.00 in 26 W/m2
14:40 24.9 °F 21.3 °F 29.99 in West 2.0 mph 2.0 mph 86% 0.00 in 25 W/m2
14:46 24.9 °F 21.3 °F 29.99 in West 1.0 mph 2.0 mph 86% 0.00 in 21 W/m2
14:52 24.9 °F 21.3 °F 30.00 in West 1.0 mph 3.0 mph 86% 0.00 in 18 W/m2
14:58 24.9 °F 21.3 °F 30.00 in WSW 2.0 mph 3.0 mph 86% 0.00 in 12 W/m2
15:04 24.9 °F 21.3 °F 30.00 in WSW 2.0 mph 3.0 mph 86% 0.00 in 12 W/m2
15:10 24.9 °F 21.0 °F 30.00 in WSW 1.0 mph 1.0 mph 85% 0.00 in 11 W/m2
15:16 24.9 °F 21.0 °F 30.00 in SW 2.0 mph 3.0 mph 85% 0.00 in 14 W/m2
15:22 25.0 °F 21.1 °F 30.00 in SW 1.0 mph 2.0 mph 85% 0.00 in 16 W/m2
15:28 25.0 °F 21.1 °F 30.00 in Calm   2.0 mph 85% 0.00 in 12 W/m2
15:34 25.0 °F 21.1 °F 30.01 in SW 1.0 mph 2.0 mph 85% 0.00 in 11 W/m2
15:40 24.9 °F 21.3 °F 30.01 in SW 1.0 mph 1.0 mph 86% 0.00 in 11 W/m2
15:46 24.8 °F 21.2 °F 30.02 in Calm   3.0 mph 86% 0.00 in 11 W/m2
15:54 24.6 °F 20.7 °F 30.02 in Calm   1.0 mph 85% 0.00 in 9 W/m2
16:00 24.6 °F 21.0 °F 30.03 in Calm     86% 0.00 in 5 W/m2
16:06 24.7 °F 21.1 °F 30.03 in Calm   1.0 mph 86% 0.00 in 0 W/m2
16:12 24.7 °F 21.1 °F 30.03 in SW 1.0 mph 1.0 mph 86% 0.00 in 0 W/m2
16:18 24.7 °F 21.1 °F 30.04 in Calm   1.0 mph 86% 0.00 in 0 W/m2
16:20 24.7 °F 21.1 °F 30.04 in Calm   2.0 mph 86% 0.00 in 0 W/m2
16:26 24.7 °F 21.1 °F 30.04 in Calm   2.0 mph 86% 0.00 in 0 W/m2
16:32 24.7 °F 21.1 °F 30.05 in Calm     86% 0.00 in 0 W/m2
16:38 24.6 °F 21.0 °F 30.05 in Calm     86% 0.00 in 0 W/m2
16:44 24.6 °F 21.0 °F 30.05 in Calm   3.0 mph 86% 0.00 in 0 W/m2
16:50 24.6 °F 21.0 °F 30.06 in SW 1.0 mph 3.0 mph 86% 0.00 in 0 W/m2
16:56 24.5 °F 20.9 °F 30.06 in Calm   3.0 mph 86% 0.00 in 0 W/m2
17:04 24.6 °F 21.0 °F 30.06 in SW 1.0 mph 2.0 mph 86% 0.00 in 0 W/m2
17:10 24.6 °F 21.0 °F 30.07 in SW 1.0 mph 1.0 mph 86% 0.00 in 0 W/m2
17:14 24.5 °F 20.9 °F 30.07 in SW 1.0 mph 2.0 mph 86% 0.00 in 0 W/m2
17:20 24.5 °F 20.9 °F 30.07 in SW 1.0 mph 1.0 mph 86% 0.00 in 0 W/m2
17:26 24.5 °F 20.9 °F 30.08 in Calm   1.0 mph 86% 0.00 in 0 W/m2
17:32 24.4 °F 20.8 °F 30.08 in Calm   1.0 mph 86% 0.00 in 0 W/m2
17:38 24.4 °F 20.8 °F 30.08 in Calm   1.0 mph 86% 0.00 in 0 W/m2
17:44 24.4 °F 20.8 °F 30.08 in Calm     86% 0.00 in 0 W/m2
17:50 24.3 °F 20.7 °F 30.08 in SW 1.0 mph 1.0 mph 86% 0.00 in 0 W/m2
17:54 24.2 °F 20.6 °F 30.08 in Calm   2.0 mph 86% 0.00 in 0 W/m2
18:00 24.1 °F 20.5 °F 30.08 in Calm     86% 0.00 in 0 W/m2
18:06 24.0 °F 20.4 °F 30.08 in Calm   2.0 mph 86% 0.00 in 0 W/m2
18:12 23.7 °F 20.1 °F 30.08 in Calm   1.0 mph 86% 0.00 in 0 W/m2
18:18 23.5 °F 19.9 °F 30.09 in Calm   1.0 mph 86% 0.00 in 0 W/m2
18:24 23.2 °F 19.6 °F 30.09 in Calm     86% 0.00 in 0 W/m2
18:30 22.7 °F 19.1 °F 30.09 in Calm     86% 0.00 in 0 W/m2
18:36 22.2 °F 18.7 °F 30.10 in Calm   1.0 mph 86% 0.00 in 0 W/m2
18:42 21.7 °F 18.2 °F 30.11 in Calm     86% 0.00 in 0 W/m2
18:50 21.2 °F 17.9 °F 30.11 in WSW 1.0 mph 1.0 mph 87% 0.00 in 0 W/m2
18:56 21.3 °F 18.0 °F 30.12 in WSW 1.0 mph 1.0 mph 87% 0.00 in 0 W/m2
18:58 21.1 °F 17.8 °F 30.12 in Calm   1.0 mph 87% 0.00 in 0 W/m2
19:04 20.7 °F 17.4 °F 30.13 in Calm     87% 0.00 in 0 W/m2
19:10 20.4 °F 17.1 °F 30.13 in Calm     87% 0.00 in 0 W/m2
19:16 20.1 °F 16.9 °F 30.13 in Calm     87% 0.00 in 0 W/m2
19:22 19.7 °F 16.5 °F 30.13 in Calm     87% 0.00 in 0 W/m2
19:28 19.3 °F 16.1 °F 30.14 in Calm     87% 0.00 in 0 W/m2
19:34 18.9 °F 15.7 °F 30.14 in Calm     87% 0.00 in 0 W/m2
19:40 18.4 °F 15.2 °F 30.15 in Calm     87% 0.00 in 0 W/m2
19:46 17.8 °F 14.6 °F 30.15 in Calm     87% 0.00 in 0 W/m2
19:48 17.8 °F 14.6 °F 30.15 in Calm     87% 0.00 in 0 W/m2
19:54 17.6 °F 14.4 °F 30.16 in Calm     87% 0.00 in 0 W/m2
20:00 17.3 °F 14.4 °F 30.16 in Calm     88% 0.00 in 0 W/m2
20:06 17.2 °F 14.3 °F 30.16 in Calm     88% 0.00 in 0 W/m2
20:12 17.1 °F 14.2 °F 30.16 in Calm     88% 0.00 in 0 W/m2
20:18 17.0 °F 14.1 °F 30.16 in Calm     88% 0.00 in 0 W/m2
20:22 16.8 °F 13.9 °F 30.17 in Calm     88% 0.00 in 0 W/m2
20:28 16.6 °F 13.7 °F 30.17 in Calm     88% 0.00 in 0 W/m2
20:34 16.5 °F 13.6 °F 30.16 in Calm     88% 0.00 in 0 W/m2
20:40 16.3 °F 13.4 °F 30.17 in Calm     88% 0.00 in 0 W/m2
20:46 16.1 °F 13.2 °F 30.17 in Calm     88% 0.00 in 0 W/m2
20:52 15.7 °F 12.8 °F 30.17 in Calm     88% 0.00 in 0 W/m2
20:58 15.1 °F 12.2 °F 30.17 in Calm     88% 0.00 in 0 W/m2
21:04 14.4 °F 11.5 °F 30.17 in Calm     88% 0.00 in 0 W/m2
21:10 14.1 °F 11.2 °F 30.17 in Calm     88% 0.00 in 0 W/m2
21:12 14.0 °F 11.1 °F 30.17 in Calm     88% 0.00 in 0 W/m2
21:18 13.7 °F 10.8 °F 30.17 in Calm     88% 0.00 in 0 W/m2
21:26 13.2 °F 10.3 °F 30.17 in Calm     88% 0.00 in 0 W/m2
21:32 12.7 °F 9.8 °F 30.17 in Calm     88% 0.00 in 0 W/m2
21:38 12.3 °F 9.4 °F 30.17 in Calm     88% 0.00 in 0 W/m2
21:44 11.9 °F 9.0 °F 30.17 in Calm     88% 0.00 in 0 W/m2
21:50 11.5 °F 8.6 °F 30.18 in Calm     88% 0.00 in 0 W/m2
21:56 11.4 °F 8.5 °F 30.17 in Calm     88% 0.00 in 0 W/m2
22:02 11.5 °F 8.6 °F 30.18 in Calm     88% 0.00 in 0 W/m2
22:08 11.3 °F 8.4 °F 30.18 in Calm     88% 0.00 in 0 W/m2
22:14 11.1 °F 8.2 °F 30.19 in Calm     88% 0.00 in 0 W/m2
22:20 10.9 °F 8.0 °F 30.19 in Calm     88% 0.00 in 0 W/m2
22:26 10.5 °F 7.6 °F 30.19 in Calm     88% 0.00 in 0 W/m2
22:32 10.0 °F 7.2 °F 30.19 in Calm     88% 0.00 in 0 W/m2
22:38 9.5 °F 6.7 °F 30.19 in Calm     88% 0.00 in 0 W/m2
22:44 9.2 °F 6.4 °F 30.19 in Calm     88% 0.00 in 0 W/m2
22:50 9.0 °F 6.2 °F 30.19 in Calm     88% 0.00 in 0 W/m2
22:58 8.5 °F 5.7 °F 30.19 in Calm     88% 0.00 in 0 W/m2
23:04 8.2 °F 5.1 °F 30.19 in Calm     87% 0.00 in 0 W/m2
23:10 8.0 °F 4.9 °F 30.19 in Calm     87% 0.00 in 0 W/m2
23:16 7.7 °F 4.6 °F 30.20 in Calm     87% 0.00 in 0 W/m2
23:22 7.5 °F 4.4 °F 30.20 in Calm     87% 0.00 in 0 W/m2
23:28 7.3 °F 4.2 °F 30.20 in Calm     87% 0.00 in 0 W/m2
23:34 7.1 °F 4.0 °F 30.20 in Calm     87% 0.00 in 0 W/m2
23:40 7.2 °F 4.1 °F 30.20 in Calm     87% 0.00 in 0 W/m2
23:46 7.3 °F 4.2 °F 30.20 in Calm     87% 0.00 in 0 W/m2
23:52 7.3 °F 4.2 °F 30.20 in Calm     87% 0.00 in 0 W/m2
23:58 7.1 °F 4.0 °F 30.20 in Calm     87% 0.00 in 0 W/m2
Country Meadow, Clay, NY, USA
Compliments of Weather Underground - 2 mb